Craig, CO

1:50 PM MDT on June 22, 2017 (GMT -0600)
Craig-Moffat

Weather History for KCAG - January, 2013

Change the Weather History Date:

Saturday, January 5, 2013

  Actual Average Record
Temperature  
Mean Temperature -5 °F 15 °F  
Max Temperature 11 °F 29 °F 52 °F (2012)
Min Temperature -21 °F 1 °F -25 °F (2009)
Degree Days  
Heating Degree Days 70 50  
Month to date heating degree days 348 250  
Since 1 July heating degree days 3519 3806  
Cooling Degree Days 0 0  
Month to date cooling degree days 0 0  
Year to date cooling degree days 0 0  
Moisture  
Dew Point -18 °F    
Average Humidity 65    
Maximum Humidity 75    
Minimum Humidity 55    
Precipitation  
Precipitation 0.00 in 0.02 in 0.23 in (2008)
Month to date precipitation T 0.13  
Year to date precipitation T 0.13  
Sea Level Pressure  
Sea Level Pressure 30.58 in    
Wind  
Wind Speed 0 mph (SSW)    
Max Wind Speed 5 mph    
Max Gust Speed 6 mph    
Visibility 5 miles    
Events      
T = Trace of Precipitation, MM = Missing Value Source: NWS Daily Summary

Daily Weather History Graph

Daily Weather History Graph

Search for Another Location

Airport or City:

Trip Planner

Search our weather history database for the weather conditions in past years. The results will help you decide how hot, cold, wet, or windy it might be!

Date:

Astronomy

Jan. 05, 2013 Rise Set
Actual Time 7:33 AM MST 4:58 PM MST
Civil Twilight 7:03 AM MST 5:28 PM MST
Nautical Twilight 6:29 AM MST 6:02 PM MST
Astronomical Twilight 5:55 AM MST 6:35 PM MST
Moon 12:42 AM MST (1/5) 11:50 AM MST (1/5)
Length of Visible Light 10h 25m
Length of Day
9h 24m
Last Quarter, 43% of the Moon is Illuminated
Jan 5
Last Quarter
Jan 11
New
Jan 18
First Quarter
Jan 26
Full
Feb 3
Last Quarter

Hourly Weather History & Observations

Time (MST) Temp. Windchill Dew Point Humidity Pressure Visibility Wind Dir Wind Speed Gust Speed Precip Events Conditions
12:15 AM -9.4 °F - -16.6 °F 71% 30.27 in 1.8 mi Calm Calm - N/A   Haze
12:24 AM -9.4 °F - -18.4 °F 65% 30.27 in 0.8 mi Calm Calm - N/A   Haze
12:53 AM -11.0 °F - -18.0 °F 71% 30.67 in 0.2 mi Calm Calm - N/A   Haze
1:33 AM -13.0 °F - -20.2 °F 70% 30.27 in 1.2 mi Calm Calm - N/A   Haze
1:37 AM -13.0 °F - -20.2 °F 70% 30.27 in 3.0 mi Calm Calm - N/A   Haze
1:47 AM -14.8 °F - -25.6 °F 58% 30.27 in 1.8 mi Calm Calm - N/A   Haze
1:53 AM -16.1 °F - -25.1 °F 64% 30.69 in 1.5 mi Calm Calm - N/A   Haze
1:57 AM -16.6 °F - -25.6 °F 64% 30.27 in 4.0 mi Calm Calm - N/A   Haze
2:07 AM -16.6 °F - -23.8 °F 70% 30.27 in 8.0 mi Calm Calm - N/A   Partly Cloudy
2:53 AM -16.6 °F - -25.6 °F 64% 30.29 in 10.0 mi Calm Calm - N/A   Partly Cloudy
3:53 AM -20.0 °F - -29.0 °F 63% 30.74 in 10.0 mi Calm Calm - N/A   Clear
4:53 AM -20.0 °F - -31.0 °F 57% 30.78 in 10.0 mi Calm Calm - N/A   Clear
5:17 AM -18.4 °F - -29.2 °F 58% 30.31 in 10.0 mi Calm Calm - N/A   Scattered Clouds
5:28 AM -20.2 °F - -31.0 °F 58% 30.31 in 10.0 mi Calm Calm - N/A   Mostly Cloudy
5:53 AM -18.0 °F - -27.9 °F 61% 30.80 in 7.0 mi Calm Calm - N/A   Overcast
6:53 AM -16.1 °F - -26.0 °F 61% 30.84 in 4.0 mi Calm Calm - N/A   Haze
7:21 AM -16.6 °F - -25.6 °F 64% 30.34 in 2.5 mi Calm Calm - N/A   Haze
7:36 AM -16.6 °F - -25.6 °F 64% 30.35 in 1.5 mi Calm Calm - N/A   Haze
7:44 AM -16.6 °F -29.3 °F -23.8 °F 70% 30.34 in 0.8 mi SSE 4.6 mph - N/A   Haze
7:53 AM -16.1 °F - -23.1 °F 71% 30.85 in 0.2 mi Calm Calm - N/A   Haze
8:53 AM -14.1 °F -23.9 °F -23.1 °F 64% 30.87 in 0.2 mi NNW 3.5 mph - N/A   Haze
9:09 AM -11.2 °F - -18.4 °F 70% 30.37 in 1.5 mi Calm Calm - N/A   Haze
9:16 AM -13.0 °F -22.7 °F -22.0 °F 64% 30.37 in 2.5 mi SSE 3.5 mph - N/A   Haze
9:28 AM -11.2 °F - -20.2 °F 64% 30.37 in 4.0 mi Calm Calm - N/A   Haze
9:51 AM -7.6 °F - -16.6 °F 65% 30.38 in 1.8 mi Calm Calm - N/A   Haze
9:53 AM -8.0 °F - -15.0 °F 71% 30.86 in 2.0 mi Calm Calm - N/A   Haze
10:05 AM -5.8 °F - -13.0 °F 71% 30.39 in 3.0 mi Calm Calm - N/A   Haze
10:18 AM -4.0 °F - -13.0 °F 65% 30.39 in 1.0 mi Calm Calm - N/A   Haze
10:25 AM -5.8 °F - -11.2 °F 77% 30.39 in 0.2 mi Calm Calm - N/A   Haze
10:53 AM 1.9 °F - -8.0 °F 63% 30.80 in 0.2 mi Calm Calm - N/A   Haze
11:19 AM 1.4 °F - -9.4 °F 61% 30.38 in 1.2 mi Calm Calm - N/A   Haze
11:26 AM 1.4 °F - -9.4 °F 61% 30.38 in 3.0 mi Calm Calm - N/A   Haze
11:37 AM 1.4 °F - -9.4 °F 61% 30.38 in 5.0 mi Calm Calm - N/A   Haze
11:53 AM 1.9 °F -5.6 °F -8.0 °F 63% 30.79 in 6.0 mi SW 3.5 mph - N/A   Haze
12:00 PM 1.4 °F -6.2 °F -5.8 °F 72% 30.38 in 3.0 mi SW 3.5 mph - N/A   Haze
12:13 PM 3.2 °F - -5.8 °F 66% 30.37 in 2.0 mi Calm Calm - N/A   Haze
12:24 PM 5.0 °F -2.1 °F -5.8 °F 61% 30.37 in 6.0 mi NW 3.5 mph - N/A   Haze
12:53 PM 7.0 °F - -8.0 °F 51% 30.74 in 10.0 mi Calm Calm - N/A   Partly Cloudy
1:53 PM 8.1 °F - -5.1 °F 55% 30.76 in 10.0 mi Calm Calm - N/A   Clear
2:53 PM 7.0 °F - -2.9 °F 64% 30.76 in 10.0 mi Calm Calm - N/A   Clear
3:53 PM 3.9 °F -3.4 °F -4.0 °F 70% 30.80 in 10.0 mi SSE 3.5 mph - N/A   Clear
4:53 PM -0.0 °F - -8.0 °F 69% 30.83 in 10.0 mi Calm Calm - N/A   Clear
5:53 PM -6.0 °F - -11.9 °F 75% 30.87 in 10.0 mi Calm Calm - N/A   Clear
6:53 PM -7.1 °F - -14.1 °F 72% 30.87 in 10.0 mi Calm Calm - N/A   Clear
7:53 PM -11.0 °F - -20.0 °F 64% 30.89 in 10.0 mi Calm Calm - N/A   Clear
8:53 PM -11.0 °F - -18.9 °F 68% 30.87 in 10.0 mi Calm Calm - N/A   Clear
9:53 PM -11.9 °F - -20.9 °F 64% 30.83 in 10.0 mi Calm Calm - N/A   Clear
10:53 PM -13.0 °F - -20.9 °F 68% 30.79 in 10.0 mi Calm Calm - N/A   Clear
11:40 PM -14.8 °F - -23.8 °F 64% 30.36 in 10.0 mi Calm Calm - N/A   Partly Cloudy
11:53 PM -13.0 °F - -20.9 °F 68% 30.78 in 10.0 mi Calm Calm - N/A   Mostly Cloudy